Vorticity
10 10 10 11 10 11 11 9 8 8 7 7 7 7 6 6 7 7 8 8 6 7 8 6 7 8 7 7 8 8 1 10 6 14 14 11 2 3 8 5 5 4 7 10 10
12 12 11 11 10 11 10 9 8 7 7 7 7 6 6 7 7 8 7 9 8 8 9 9 8 8 7 7 6 6 7 5 3 11 7 9 6 7 6 6 7 6 7 10 9
7 10 14 14 12 10 9 8 8 8 8 8 7 7 7 6 7 11 12 10 10 10 6 6 7 7 7 8 4 4 2 5 -3 3 8 3 3 2 4 16 9 10 9 10 9
5 5 10 14 14 13 11 10 9 8 8 8 8 8 7 7 9 15 14 12 8 9 9 7 8 8 7 6 5 5 5 8 6 2 2 4 5 5 8 -0 13 8 7 8 7
6 6 6 11 13 11 11 10 10 9 9 9 8 8 9 9 8 -2 11 15 9 9 8 8 10 10 9 13 4 2 9 8 4 8 7 7 7 10 16 6 9 10 11 14 8
6 6 6 6 11 12 9 9 8 9 8 8 8 8 8 9 8 7 6 7 8 7 8 10 10 8 12 2 -0 3 12 10 16 14 10 8 7 6 -1 22 16 12 15 6 8
6 6 6 6 6 9 11 9 8 8 7 7 7 7 7 5 11 10 8 5 3 4 6 8 10 9 10 2 9 6 8 8 13 16 13 10 24 32 18 4 9 6 10 13 12
7 7 7 6 7 7 8 8 10 9 8 7 7 6 6 9 7 -2 14 8 6 4 7 8 8 6 5 0 -3 -3 4 15 14 8 12 21 -9 12 15 5 4 3 3 3 2
7 7 7 7 7 7 7 7 7 7 8 8 8 7 10 13 10 9 8 1 5 7 9 7 7 6 7 5 4 14 -3 -1 11 19 16 8 -1 2 1 -2 2 -1 -2 1 -0
6 7 7 7 7 7 7 8 9 8 7 7 7 10 4 16 8 15 6 7 7 6 4 6 5 3 6 5 -6 14 13 7 -3 1 -12 -6 -6 -4 -6 -6 -7 -4 1 1 3
7 7 7 7 7 7 6 7 7 9 10 10 -9 22 -5 27 3 13 14 12 8 3 3 8 3 1 14 12 11 5 1 3 3 1 4 12 15 18 14 12 8 8 10 10 8
8 8 7 7 7 7 7 7 7 3 6 6 10 13 -2 -2 5 -1 5 9 11 10 11 7 3 8 9 6 5 6 7 6 9 23 8 7 -9 -10 3 5 6 10 9 10 11
11 10 9 8 7 8 7 7 7 8 7 8 8 11 11 7 1 3 3 6 5 6 7 7 -6 3 13 15 20 10 16 8 -2 1 8 20 32 24 25 25 25 22 21 21 19
12 12 12 11 11 10 10 9 9 10 11 17 18 23 24 19 19 13 14 7 12 14 6 19 18 8 8 19 19 14 34 31 20 15 11 9 6 11 8 5 5 1 1 3 2
8 10 9 10 11 12 11 13 15 13 4 17 14 9 19 10 11 16 14 12 2 4 8 4 4 4 -2 -1 3 8 7 18 13 11 7 17 9 21 9 0 -4 3 5 7 11
10 11 13 12 8 9 12 13 11 4 18 6 7 8 11 9 10 16 15 15 17 15 7 4 -6 -1 10 6 6 -2 1 9 13 13 18 23 -10 26 4 12 6 6 7 7 6
14 13 15 16 13 12 9 14 5 -0 15 15 10 8 10 11 6 8 12 10 -5 10 18 18 16 10 3 6 20 18 0 9 11 10 3 29 12 -13 -1 1 3 7 8 7 10
15 14 14 17 17 15 12 13 1 20 4 13 14 10 5 5 12 7 7 6 10 9 3 15 15 12 21 19 5 8 13 -6 9 6 6 0 21 2 10 10 4 4 4 5 5
18 19 19 18 19 18 14 -12 15 5 9 11 11 7 6 6 5 10 7 7 8 8 3 8 17 7 4 -14 2 18 7 14 2 13 14 11 7 2 7 5 4 5 10 17 18
12 9 21 24 23 18 12 -10 7 9 18 12 1 4 10 6 -1 5 -3 15 16 9 11 21 7 13 5 5 8 6 3 6 14 10 9 23 16 -5 18 17 9 10 9 -7 -2
7 11 16 18 17 14 3 -6 7 9 2 4 10 10 12 6 3 4 7 6 9 5 11 6 15 3 5 19 9 2 5 10 2 0 6 4 10 7 3 4 6 -3 -9 1 8
7 8 15 13 8 8 3 15 7 14 6 4 8 7 4 8 15 11 3 1 10 -1 1 10 14 12 4 10 25 33 21 23 2 7 9 5 18 -16 5 10 -16 -3 8 9 11
14 8 13 9 -1 13 8 13 10 9 9 14 11 10 11 6 7 12 11 13 6 5 12 -5 11 14 10 20 17 10 3 -7 -5 16 14 2 1 -12 -11 5 10 11 10 12 13
14 10 11 7 3 16 16 7 4 12 11 10 10 8 9 10 7 6 7 9 10 7 3 7 14 -0 -13 -10 -10 -15 -13 3 6 12 -2 -19 -7 -0 4 2 7 12 12 12 11
16 13 9 21 12 12 8 16 10 5 10 8 11 8 4 12 9 7 13 10 7 6 11 16 13 19 18 15 14 10 11 8 9 11 12 9 5 1 7 11 13 10 13 11 9
13 8 14 13 11 10 8 9 9 9 8 10 12 9 8 12 8 5 10 14 16 16 10 11 3 8 9 9 14 19 28 24 17 14 15 12 8 13 11 5 10 5 6 10 9
16 16 11 10 11 11 11 10 5 9 15 5 9 12 11 11 10 10 12 13 7 9 11 12 17 12 19 12 12 28 19 17 14 9 5 8 9 9 7 4 4 8 9 5 5
Height
3076 3074 3075 3076 3076 3077 3077 3078 3080 3083 3084 3085 3086 3088 3089 3090 3090 3093 3094 3096 3096 3097 3098 3100 3101 3104 3106 3108 3109 3112 3114 3114 3116 3117 3118 3120 3122 3123 3124 3125 3126 3127 3127 3128 3128
3077 3075 3075 3074 3074 3075 3075 3076 3078 3080 3081 3083 3085 3086 3087 3088 3089 3091 3091 3092 3094 3096 3097 3099 3101 3103 3104 3106 3108 3110 3111 3114 3115 3116 3117 3118 3120 3121 3123 3123 3124 3125 3125 3125 3126
3077 3075 3074 3073 3073 3073 3074 3075 3076 3078 3080 3081 3083 3084 3085 3086 3087 3088 3089 3090 3091 3094 3095 3097 3099 3101 3102 3104 3106 3107 3109 3113 3114 3114 3115 3117 3118 3119 3121 3122 3123 3122 3122 3123 3125
3076 3075 3074 3072 3072 3072 3072 3073 3074 3076 3078 3080 3081 3082 3083 3084 3087 3085 3087 3088 3089 3092 3093 3095 3098 3099 3100 3102 3104 3106 3108 3110 3112 3113 3113 3115 3116 3118 3119 3121 3120 3120 3121 3122 3124
3075 3074 3074 3072 3071 3071 3071 3071 3073 3074 3076 3078 3079 3080 3081 3083 3084 3084 3085 3086 3087 3089 3091 3094 3096 3098 3099 3100 3102 3104 3107 3108 3109 3110 3111 3112 3114 3116 3117 3118 3117 3118 3118 3119 3121
3074 3073 3072 3071 3070 3070 3070 3070 3072 3073 3074 3076 3077 3078 3079 3081 3081 3082 3084 3085 3085 3088 3090 3092 3094 3096 3097 3098 3100 3101 3103 3105 3106 3108 3108 3110 3112 3114 3116 3114 3112 3111 3111 3112 3112
3072 3071 3070 3070 3069 3069 3069 3069 3070 3072 3073 3074 3075 3076 3077 3079 3078 3079 3081 3082 3083 3086 3089 3091 3093 3094 3095 3097 3098 3099 3101 3102 3104 3105 3105 3107 3110 3111 3110 3109 3109 3110 3109 3110 3110
3069 3068 3068 3068 3068 3068 3068 3068 3069 3069 3070 3071 3072 3073 3074 3075 3076 3078 3079 3080 3081 3084 3087 3089 3091 3092 3094 3095 3096 3097 3098 3100 3101 3102 3103 3105 3107 3106 3106 3106 3106 3107 3107 3107 3108
3066 3066 3065 3065 3065 3066 3066 3067 3067 3067 3068 3069 3070 3070 3071 3072 3073 3074 3076 3078 3079 3082 3084 3086 3088 3089 3091 3091 3094 3094 3095 3097 3099 3099 3101 3103 3105 3104 3103 3103 3103 3104 3104 3105 3105
3062 3062 3062 3062 3062 3063 3063 3064 3065 3066 3066 3066 3067 3070 3069 3069 3070 3071 3073 3075 3077 3079 3081 3083 3084 3085 3086 3088 3089 3090 3092 3093 3096 3098 3097 3099 3102 3098 3098 3099 3099 3100 3100 3100 3100
3058 3058 3058 3058 3058 3059 3060 3061 3064 3064 3063 3064 3064 3064 3065 3066 3067 3068 3070 3072 3074 3076 3077 3079 3081 3079 3083 3086 3086 3087 3089 3089 3091 3093 3092 3094 3095 3093 3092 3092 3093 3093 3093 3094 3093
3053 3052 3052 3053 3054 3055 3056 3057 3058 3060 3060 3059 3060 3061 3063 3064 3065 3067 3069 3071 3071 3073 3074 3077 3075 3078 3079 3081 3082 3083 3084 3084 3086 3086 3088 3088 3088 3085 3085 3085 3084 3085 3085 3085 3085
3046 3047 3047 3048 3049 3051 3052 3054 3055 3055 3056 3056 3055 3057 3058 3061 3061 3063 3066 3066 3068 3069 3071 3072 3074 3073 3074 3076 3077 3078 3078 3080 3083 3082 3081 3082 3080 3079 3077 3077 3076 3076 3076 3076 3077
3041 3041 3042 3042 3046 3046 3047 3049 3051 3052 3054 3053 3051 3051 3053 3054 3056 3058 3059 3063 3064 3065 3067 3068 3069 3069 3070 3071 3073 3073 3075 3075 3076 3077 3077 3076 3076 3073 3072 3071 3071 3070 3070 3070 3070
3035 3036 3036 3037 3039 3041 3044 3045 3047 3050 3052 3050 3048 3048 3049 3052 3053 3053 3056 3058 3060 3062 3065 3065 3065 3066 3066 3068 3069 3071 3070 3071 3071 3072 3072 3071 3075 3064 3066 3065 3066 3066 3065 3064 3064
3029 3030 3031 3032 3034 3037 3039 3041 3045 3049 3045 3044 3044 3045 3047 3048 3050 3051 3052 3055 3057 3058 3060 3061 3062 3063 3063 3064 3066 3067 3068 3068 3068 3069 3067 3063 3066 3060 3059 3059 3060 3060 3060 3060 3059
3024 3024 3025 3026 3029 3032 3035 3038 3043 3040 3041 3041 3041 3043 3045 3046 3048 3049 3050 3052 3054 3056 3056 3057 3058 3059 3060 3061 3061 3062 3064 3066 3066 3066 3061 3058 3061 3052 3055 3055 3056 3055 3054 3054 3054
3019 3020 3020 3021 3023 3026 3030 3035 3035 3033 3034 3036 3039 3041 3043 3044 3046 3047 3048 3049 3051 3052 3053 3054 3056 3055 3056 3058 3058 3059 3061 3061 3061 3061 3059 3059 3055 3049 3049 3049 3050 3050 3050 3049 3048
3016 3016 3016 3016 3018 3022 3027 3029 3027 3029 3032 3034 3037 3039 3041 3042 3045 3045 3045 3046 3047 3049 3051 3051 3052 3052 3054 3055 3056 3056 3057 3058 3058 3056 3056 3051 3050 3048 3045 3045 3046 3048 3048 3048 3046
3015 3015 3014 3014 3016 3019 3024 3024 3025 3027 3029 3031 3033 3036 3037 3039 3041 3042 3042 3043 3043 3045 3046 3047 3050 3050 3051 3052 3052 3053 3054 3055 3056 3055 3052 3044 3043 3041 3043 3045 3045 3045 3045 3045 3044
3015 3015 3014 3014 3016 3019 3021 3022 3024 3026 3028 3030 3030 3032 3034 3035 3037 3038 3039 3041 3040 3041 3043 3044 3046 3048 3047 3047 3047 3050 3049 3051 3053 3051 3047 3044 3041 3040 3042 3043 3042 3041 3040 3039 3038
3014 3015 3015 3016 3018 3018 3020 3020 3022 3023 3025 3026 3028 3029 3031 3032 3033 3035 3035 3037 3037 3039 3040 3041 3041 3043 3044 3043 3043 3043 3044 3046 3048 3048 3047 3046 3038 3038 3040 3039 3038 3036 3034 3032 3030
3014 3014 3015 3016 3017 3017 3017 3018 3019 3021 3022 3024 3025 3026 3028 3030 3032 3031 3032 3034 3035 3036 3036 3037 3037 3040 3041 3042 3041 3041 3041 3043 3044 3044 3043 3046 3036 3035 3036 3035 3034 3032 3030 3028 3026
3013 3013 3013 3013 3014 3015 3016 3017 3018 3019 3020 3022 3023 3024 3026 3027 3028 3028 3029 3031 3031 3032 3033 3034 3033 3035 3035 3035 3037 3038 3038 3038 3041 3041 3039 3036 3034 3033 3030 3029 3028 3027 3024 3022 3020
3011 3011 3011 3011 3012 3013 3014 3015 3016 3017 3019 3020 3021 3022 3023 3024 3025 3026 3027 3028 3028 3027 3028 3030 3029 3029 3031 3031 3031 3032 3033 3034 3034 3034 3033 3031 3031 3030 3028 3025 3023 3021 3020 3017 3015
3009 3010 3009 3010 3011 3011 3012 3013 3014 3015 3017 3017 3018 3019 3020 3022 3022 3023 3024 3025 3024 3023 3023 3024 3024 3025 3027 3027 3027 3026 3026 3027 3028 3028 3028 3027 3027 3024 3022 3020 3018 3016 3014 3012 3010
3008 3009 3009 3009 3010 3011 3011 3011 3012 3013 3015 3015 3016 3016 3017 3018 3018 3019 3019 3020 3020 3021 3021 3022 3022 3023 3023 3024 3024 3024 3023 3023 3024 3024 3024 3024 3023 3021 3019 3016 3013 3012 3009 3007 3005